User: anonymous   Login
Location: Sabalos
(43.2860°N, 0.1414°E)
Time: 01:41:56
(UTC+00:00)
Language:

NOSS 0 Rocket - Orbit

View from above orbital plane
View from above orbital plane
View from above satellite
View from above satellite

Ground track
Ground track

The orbit data is extracted from the following two-line orbital elements,

1  5679U 71110B   20272.46486973 -.00000029 +00000-0 +20096-4 0  9990
2  5679 069.9967 065.0661 0015470 268.8014 091.1314 13.85343060080184
Epoch (UTC): 28 September 2020 11:09:24
Eccentricity: 0.0015470
inclination: 69.9967°
perigee height: 933 km
apogee height: 956 km
right ascension of ascending node: 65.0661°
argument of perigee: 268.8014°
revolutions per day: 13.85343060
mean anomaly at epoch: 91.1314°
orbit number at epoch: 8018

The dashed part of the orbit path shows where the satellite is in the earth's shadow,  

DLR